Simultaneous Nadir Overpasses (SNOs) Predictions

Prediction of SNOs between GOES-16 and TERRA Satellite Orbit:

Table of predicted SNOs for the next 14.0 days since TLE Epoch: 9/26/2025
Index Date Time (GOES-16) GOES-16 Lat,Lon TERRA Lat,Lon Distance(km) Time Diff (sec)
1 09/28/2025 04:13:36 -0.09,-104.67 -0.09,-104.67 1.10 80
2 09/30/2025 16:11:00 0.09,-104.72 0.08,-104.74 2.18 80
3 10/03/2025 04:13:50 -0.10,-104.68 -0.15,-104.82 17.07 80
4 10/05/2025 16:11:13 0.10,-104.73 0.13,-104.89 18.14 80
5 10/08/2025 04:14:02 -0.11,-104.69 -0.16,-104.98 32.48 80
6 10/10/2025 03:51:58 -0.11,-104.69 0.79,-100.30 498.02 80
7 10/10/2025 16:11:23 0.12,-104.73 0.19,-105.03 34.05 80
